NOAA 16 DEB, 42384

Orbit data source: Space-Track

NOAA 16 DEB, 42384 is space debris in SSO originally from a launch on Thu, 21 Sep 2000 UTC launched from the Air Force Western Test Range (AFWTR). Debris objects in space refer to the collection of defunct objects orbiting the Earth. Examples of debris include non-operational satellites, rocket bodies, and fragments generated from explosions, collisions, or faulty payload assembly.

Loading next visibility...
Identifier
42384, 2000-055SC
Orbit
SSO
Country
Flag of USUS
Related business
Manufacturer
Unknown
Mission
Spacecraft
Bus & Motor
Unknown
Mass
Unknown
Launch date (UTC)
2000-09-21 (26 years ago)
Launch vehicle
Unknown
Launch site
Air Force Western Test Range (AFWTR)
Object type
Payload
Rocket body
Debris
Shape & HBR
Unknown shape, 0.070 m
Radar Cross Section
Medium (>0.1 m² and <1 m²)

Expand to show TLE details & history
Last TLE update: 1 day ago

TLE from 1 day ago
0 NOAA 16 DEB
1 42384U 00055SC  26266.43462834  .00002649  00000-0  95158-3 0  9999
2 42384  98.6599 344.6135 0011828  25.0538 335.1218 14.34654187546065
Epoch: 2026-09-23T10:25Z
TLE epoch observation values (Epoch: 2026-09-23T10:25:51.888Z)
Latitude
-0.00007°
Longitude
-174.13849°
Altitude
771.475 km
Speed
7.472 km/s
True Right ascension
22h 58m 27s
True Declination
0° 00' 00"
Sunlit
Object was in full shadow at epoch
Visualization orbit readout
Latitude
Unknown
Longitude
Unknown
Altitude
Unknown
Speed
Unknown
Apparent Right ascension
Unknown
Apparent Declination
Unknown
Sunlit
N/A
Visualization observer readout
Local Sidereal Time
03:26:34
Azimuth
Unknown
Elevation
Unknown
Doppler factor
Unknown
Orbital elements
Apogee altitude
781.811 km
Perigee altitude
764.894 km
Semi-major axis
7,151.489 km
Eccentricity
0.00118
Inclination
98.6599°
RAAN
344.6135°
Arg. of periapsis
25.0538°
True anomaly
335.0647°
Mean anomaly
335.1218°
Eccentric anomaly
335.09326°
Mean motion
3.58879 °/min
Orbital period
100.31 mins
BSTAR
0.00095158
Loading maneuver chart data...
Computing Atmospheric mass density...
Loading historical data...
Loading historical data...
Loading historical data...
Loading historical data...
Loading historical data...
Loading historical data...
Loading historical data...

Documentation

Showing up to 5 results
|